Date String (YYYY-MM-DD hh:mm:ss) UTC,Instrument flags,absolute air pressure of the measurement (hPa),sample flow rate (lpm),inlet stack bypass flow (lpm),air temperature of the measurement (°C),ambient temperature measured by the external sensor (°C),aerosol sample conditioner tube jacket temperature (°C),OPC LED temperature (°C),internal box temperature (°C),relative humidity of the measurement (%),span deviation,mass concentration of particles derived from Lorenz-Mie calculation of OPC scattering (μg/m³),mass concentration of particles derived from Lorenz-Mie calculation of OPC scattering (μg/m³),mass concentration of particles derived from Lorenz-Mie calculation of OPC scattering (μg/m³)
DateTimeUTC,F1_M11,P_M11,Q1_M11,Q2_M11,T1_M11,T2_M11,T3_M11,T4_M11,T5_M11,U1_M11,ZSPAN_M11,X0_M11,X2_M11,X1_M11
2023-07-10 00:00:00,SystemResetWarning,0831.9,4.99,000.00,030.5,026.6,000.0,038.2,030.8,33.7,0000.0,0012.02,0007.03,0006.51
2023-07-10 00:01:00,SystemResetWarning,0832.0,5.00,000.00,030.5,027.0,000.0,038.3,030.9,33.5,0000.0,0012.80,0006.98,0006.48
2023-07-10 00:02:00,SystemResetWarning,0832.0,5.01,000.00,030.5,027.4,000.0,038.3,031.0,33.5,0000.0,0012.85,0006.96,0006.45
2023-07-10 00:03:00,SystemResetWarning,0832.0,5.00,000.00,030.6,027.7,000.0,038.4,031.1,33.9,-000.7,0012.94,0006.96,0006.44
2023-07-10 00:04:00,SystemResetWarning,0832.0,4.98,000.00,030.6,027.8,000.0,038.4,031.2,33.8,-001.6,0013.26,0006.98,0006.44
2023-07-10 00:05:00,SystemResetWarning,0832.0,5.01,000.00,030.6,026.4,000.0,038.3,031.0,34.0,-000.5,0013.10,0006.99,0006.43
2023-07-10 00:06:00,SystemResetWarning,0831.9,5.00,000.00,030.5,025.2,000.0,038.2,030.9,33.6,0000.0,0013.31,0007.03,0006.42
2023-07-10 00:07:00,SystemResetWarning,0831.8,5.00,000.00,030.4,025.1,000.0,038.2,030.7,34.5,0000.0,0014.01,0007.07,0006.41
2023-07-10 00:08:00,SystemResetWarning,0832.2,5.01,000.00,030.3,025.4,000.0,038.2,030.6,35.5,0000.0,0014.10,0007.08,0006.42
2023-07-10 00:09:00,SystemResetWarning,0831.9,5.00,000.00,030.4,025.8,000.0,038.3,030.7,33.3,0000.0,0014.23,0007.09,0006.42
2023-07-10 00:10:00,SystemResetWarning,0831.9,4.99,000.00,030.5,026.3,000.0,038.3,030.9,33.2,0000.0,0014.33,0007.12,0006.44
2023-07-10 00:11:00,SystemResetWarning,0831.9,5.02,000.00,030.6,026.8,000.0,038.3,031.0,33.4,0000.0,0014.50,0007.14,0006.47
2023-07-10 00:12:00,SystemResetWarning,0831.9,4.98,000.00,030.6,027.2,000.0,038.4,031.1,32.8,0000.0,0013.61,0007.20,0006.50
2023-07-10 00:13:00,SystemResetWarning,0831.9,5.00,000.00,030.6,027.5,000.0,038.4,031.1,33.2,0000.0,0014.28,0007.21,0006.50
2023-07-10 00:14:00,SystemResetWarning,0831.9,5.00,000.00,030.6,027.8,000.0,038.5,031.2,32.7,0000.0,0014.16,0007.19,0006.49
2023-07-10 00:15:00,SystemResetWarning,0831.9,5.00,000.00,030.7,027.4,000.0,038.5,031.3,33.1,0000.0,0013.86,0007.13,0006.49
2023-07-10 00:16:00,SystemResetWarning,0831.8,5.00,000.00,030.7,025.9,000.0,038.4,031.1,32.7,0000.0,0013.32,0007.10,0006.47
2023-07-10 00:17:00,SystemResetWarning,0832.2,5.00,000.00,030.6,025.1,000.0,038.3,030.9,32.8,-000.4,0013.24,0007.10,0006.47
2023-07-10 00:18:00,SystemResetWarning,0832.2,5.01,000.00,030.5,025.1,000.0,038.3,030.7,33.2,-001.8,0012.59,0007.08,0006.46
2023-07-10 00:19:00,SystemResetWarning,0832.3,5.01,000.00,030.4,025.5,000.0,038.3,030.7,33.4,-001.4,0012.55,0007.07,0006.44
2023-07-10 00:20:00,SystemResetWarning,0832.0,4.99,000.00,030.3,026.0,000.0,038.4,030.7,33.9,-001.6,0012.54,0007.08,0006.43
2023-07-10 00:21:00,SystemResetWarning,0831.8,5.00,000.00,030.3,026.5,000.0,038.4,030.8,33.3,-001.8,0012.49,0007.07,0006.41
2023-07-10 00:22:00,SystemResetWarning,0831.8,5.01,000.00,030.3,026.9,000.0,038.4,030.9,33.5,-001.6,0011.73,0007.03,0006.40
2023-07-10 00:23:00,SystemResetWarning,0831.9,5.00,000.00,030.3,027.3,000.0,038.4,031.0,33.0,-001.6,0011.47,0007.00,0006.39
2023-07-10 00:24:00,SystemResetWarning,0831.9,5.00,000.00,030.3,027.6,000.0,038.4,031.1,32.4,-001.5,0010.65,0006.98,0006.39
2023-07-10 00:25:00,SystemResetWarning,0831.9,5.00,000.00,030.3,027.8,000.0,038.5,031.2,32.3,-001.8,0010.69,0006.96,0006.40
2023-07-10 00:26:00,SystemResetWarning,0832.0,4.99,000.00,030.3,027.0,000.0,038.4,031.1,32.8,-001.7,0010.96,0006.94,0006.38
2023-07-10 00:27:00,SystemResetWarning,0831.9,5.00,000.00,030.2,025.5,000.0,038.2,030.9,32.7,-002.0,0010.64,0006.96,0006.39
2023-07-10 00:28:00,SystemResetWarning,0832.0,5.02,000.00,030.2,025.0,000.0,038.1,030.7,33.3,-002.1,0010.45,0006.94,0006.39
2023-07-10 00:29:00,SystemResetWarning,0831.9,5.00,000.00,030.0,025.2,000.0,038.1,030.5,33.6,-001.8,0010.29,0006.90,0006.39
2023-07-10 00:30:00,SystemResetWarning,0831.9,4.99,000.00,029.9,025.7,000.0,038.2,030.5,34.5,-001.7,0010.25,0006.87,0006.40
2023-07-10 00:31:00,SystemResetWarning,0831.9,5.00,000.00,029.9,026.1,000.0,038.2,030.6,34.3,-001.1,0010.10,0006.85,0006.41
2023-07-10 00:32:00,SystemResetWarning,0831.9,4.99,000.00,029.9,026.6,000.0,038.2,030.8,34.5,-000.7,0010.02,0006.83,0006.41
2023-07-10 00:33:00,SystemResetWarning,0831.9,5.00,000.00,029.9,027.0,000.0,038.2,030.9,34.4,-000.7,0010.12,0006.87,0006.43
2023-07-10 00:34:00,SystemResetWarning,0831.9,4.99,000.00,029.9,027.4,000.0,038.2,031.0,34.7,-001.1,0010.52,0006.90,0006.43
2023-07-10 00:35:00,SystemResetWarning,0831.9,5.01,000.00,030.0,027.7,000.0,038.2,031.1,35.5,-001.6,0010.90,0006.89,0006.43
2023-07-10 00:36:00,SystemResetWarning,0831.9,5.01,000.00,030.2,027.7,000.0,038.2,031.3,34.5,-001.0,0010.97,0006.90,0006.43
2023-07-10 00:37:00,SystemResetWarning,0831.9,4.98,000.00,030.4,026.4,000.0,038.1,031.2,33.7,-001.2,0011.07,0006.97,0006.46
2023-07-10 00:38:00,SystemResetWarning,0831.9,5.02,000.00,030.5,025.2,000.0,038.0,030.9,32.9,-000.7,0011.06,0006.98,0006.46
2023-07-10 00:39:00,SystemResetWarning,0831.9,5.00,000.00,030.4,025.0,000.0,038.0,030.7,33.4,-000.2,0011.13,0007.01,0006.46
2023-07-10 00:40:00,SystemResetWarning,0831.9,4.99,000.00,030.4,025.4,000.0,038.1,030.6,34.7,-000.1,0011.09,0007.00,0006.47
2023-07-10 00:41:00,SystemResetWarning,0831.9,5.03,000.00,030.3,025.8,000.0,038.1,030.7,34.9,0000.0,0011.00,0007.00,0006.47
2023-07-10 00:42:00,SystemResetWarning,0832.0,4.97,000.00,030.4,026.3,000.0,038.2,030.8,33.9,0000.0,0011.03,0006.97,0006.45
2023-07-10 00:43:00,SystemResetWarning,0832.0,5.01,000.00,030.5,026.7,000.0,038.2,030.9,32.7,0000.0,0011.08,0006.96,0006.44
2023-07-10 00:44:00,SystemResetWarning,0832.0,5.01,000.00,030.5,027.1,000.0,038.3,031.0,33.0,0000.0,0011.68,0006.94,0006.42
2023-07-10 00:45:00,SystemResetWarning,0832.0,4.99,000.00,030.6,027.5,000.0,038.4,031.1,32.5,0000.0,0011.67,0006.92,0006.42
2023-07-10 00:46:00,SystemResetWarning,0832.0,5.00,000.00,030.6,027.8,000.0,038.4,031.2,32.8,0000.0,0011.47,0006.92,0006.41
2023-07-10 00:47:00,SystemResetWarning,0832.0,5.00,000.00,030.7,027.9,000.0,038.5,031.2,32.9,0000.0,0012.07,0006.95,0006.42
2023-07-10 00:48:00,SystemResetWarning,0832.0,5.00,000.00,030.7,026.9,000.0,038.4,031.1,32.2,0000.0,0011.91,0006.98,0006.42
2023-07-10 00:49:00,SystemResetWarning,0832.0,5.00,000.00,030.6,025.4,000.0,038.3,030.9,32.7,0000.0,0011.92,0006.98,0006.41
2023-07-10 00:50:00,SystemResetWarning,0832.0,5.01,000.00,030.5,025.1,000.0,038.3,030.8,32.3,0000.0,0011.80,0006.95,0006.41
2023-07-10 00:51:00,SystemResetWarning,0832.0,5.00,000.00,030.4,025.3,000.0,038.3,030.6,32.4,0000.0,0011.84,0006.95,0006.41
2023-07-10 00:52:00,SystemResetWarning,0831.9,5.00,000.00,030.3,025.8,000.0,038.3,030.7,32.9,0000.0,0012.04,0006.96,0006.42
2023-07-10 00:53:00,SystemResetWarning,0832.0,4.99,000.00,030.3,026.3,000.0,038.4,030.8,33.2,0000.0,0012.18,0007.01,0006.43
2023-07-10 00:54:00,SystemResetWarning,0832.0,5.01,000.00,030.2,026.7,000.0,038.4,030.9,32.9,0000.0,0012.36,0007.07,0006.46
2023-07-10 00:55:00,SystemResetWarning,0832.0,5.00,000.00,030.2,027.1,000.0,038.4,031.0,33.1,0000.0,0011.73,0007.07,0006.48
2023-07-10 00:56:00,SystemResetWarning,0832.0,5.00,000.00,030.2,027.5,000.0,038.4,031.1,33.7,0000.0,0011.94,0007.08,0006.49
2023-07-10 00:57:00,SystemResetWarning,0832.0,5.01,000.00,030.3,027.7,000.0,038.4,031.1,33.3,0000.0,0011.64,0007.12,0006.51
2023-07-10 00:58:00,SystemResetWarning,0832.0,4.98,000.00,030.3,026.9,000.0,038.3,031.1,33.2,0000.0,0011.37,0007.18,0006.54
2023-07-10 00:59:00,SystemResetWarning,0832.0,5.02,000.00,030.2,025.4,000.0,038.2,030.9,33.9,0000.0,0011.19,0007.17,0006.55
